EW1967 Weather Reports


time (UTC)temp
F
wind
direction
speed
knots
gust
knots
rain 1hr
in
rain 24hr
in
rain mn
in
humidity
%
barometer
mb
20260508004505 56 337 0.0 0.0 0.00 0.00 0.00 82 1009.9
20260508003005 56 337 0.0 0.0 0.00 0.00 0.00 81 1010.1
20260508001507 56 337 0.0 0.0 0.00 0.00 0.00 81 1010.2
20260508000101 56 337 0.0 0.0 0.00 0.00 0.00 81 1010.2
20260507234600 56 334 0.0 0.0 0.00 0.00 0.00 81 1010.5
20260507233101 56 334 0.0 0.0 0.00 0.00 0.00 81 1010.7
20260507231559 56 334 0.0 0.0 0.00 0.00 0.00 81 1010.8
20260507230108 56 334 0.0 0.0 0.00 0.00 0.00 81 1011.0
20260507224554 56 333 0.0 0.0 0.00 0.01 0.00 81 1011.2
20260507223052 56 333 0.0 0.0 0.00 0.01 0.00 82 1011.2
20260507221550 57 333 0.0 0.0 0.00 0.01 0.00 81 1011.2
20260507220053 57 333 0.0 0.0 0.00 0.01 0.00 81 1011.2
20260507214548 57 333 0.0 0.9 0.00 0.01 0.01 81 1011.1
20260507213048 57 331 0.0 0.0 0.00 0.01 0.01 81 1011.1
20260507211532 57 331 0.0 0.0 0.00 0.01 0.01 80 1010.9
20260507210033 58 331 0.0 0.0 0.00 0.01 0.01 80 1010.9
20260507204531 58 331 0.0 0.0 0.00 0.01 0.01 80 1010.9
20260507203051 58 331 0.0 0.0 0.00 0.01 0.01 79 1011.0
20260507201532 59 331 0.0 0.0 0.00 0.01 0.01 78 1011.1
20260507200030 58 331 0.0 1.7 0.00 0.01 0.01 78 1011.0
20260507194531 58 332 1.7 3.5 0.00 0.01 0.01 79 1011.0
20260507193028 58 324 1.7 5.2 0.00 0.01 0.01 79 1010.7
20260507191532 58 329 0.9 5.2 0.00 0.01 0.01 78 1010.6
20260507190027 59 347 0.0 4.3 0.00 0.01 0.01 77 1010.6
20260507184527 59 323 0.9 2.6 0.00 0.01 0.01 77 1010.4
20260507183026 60 328 0.9 5.2 0.00 0.01 0.01 75 1010.3
20260507181525 60 319 1.7 7.0 0.00 0.01 0.01 75 1010.1
20260507180025 61 40 1.7 4.3 0.00 0.01 0.01 75 1010.1
20260507174535 61 311 2.6 7.8 0.00 0.01 0.01 74 1010.0
20260507173047 62 342 1.7 5.2 0.00 0.01 0.01 73 1009.8
20260507171526 63 315 1.7 8.7 0.00 0.01 0.01 71 1009.4
20260507170025 64 19 5.2 12.2 0.00 0.01 0.01 68 1009.1
20260507164522 67 355 5.2 8.7 0.00 0.01 0.01 61 1009.0
20260507163025 69 219 0.9 4.3 0.00 0.01 0.01 51 1008.9
20260507161523 70 259 0.9 5.2 0.00 0.01 0.01 49 1008.8
20260507160024 70 229 1.7 6.1 0.00 0.01 0.01 49 1008.9
20260507154519 70 251 2.6 8.7 0.00 0.01 0.01 48 1008.9
20260507153019 70 183 3.5 7.8 0.00 0.01 0.01 49 1009.0
20260507151516 69 184 5.2 8.7 0.00 0.01 0.01 50 1008.9
20260507150023 71 171 6.1 8.7 0.00 0.01 0.01 45 1009.0
20260507144514 72 225 1.7 7.0 0.00 0.01 0.01 45 1009.0
20260507143012 71 236 0.9 7.8 0.00 0.01 0.01 45 1009.2
20260507141510 70 231 0.9 6.1 0.00 0.01 0.01 45 1009.4
20260507140008 71 308 3.5 9.6 0.00 0.01 0.01 44 1009.6
20260507134510 71 277 0.9 10.4 0.00 0.01 0.01 47 1009.6
20260507133006 71 288 0.9 7.8 0.00 0.01 0.01 42 1009.7
20260507131503 70 131 2.6 7.8 0.00 0.01 0.01 42 1009.8
20260507130002 70 259 2.6 9.6 0.00 0.01 0.01 46 1010.0
20260507124608 70 269 2.6 10.4 0.00 0.01 0.01 44 1010.3
20260507124501 70 271 5.2 10.4 0.00 0.01 0.01 43 1010.3
20260507123059 71 179 0.9 7.8 0.00 0.01 0.01 46 1010.2
20260507121557 70 285 2.6 8.7 0.00 0.01 0.01 43 1010.1
20260507120055 69 136 5.2 9.6 0.00 0.01 0.01 41 1010.2
20260507114609 69 138 6.1 10.4 0.00 0.01 0.01 44 1010.2
20260507113051 69 181 7.0 10.4 0.00 0.01 0.01 46 1010.3
20260507111549 68 235 3.5 7.0 0.00 0.01 0.01 48 1010.3
20260507110048 69 194 3.5 7.8 0.00 0.01 0.01 52 1010.3
20260507104546 67 13 4.3 7.8 0.00 0.02 0.01 55 1010.3
20260507103049 67 38 0.9 4.3 0.00 0.02 0.01 56 1010.5
20260507101546 67 51 0.0 3.5 0.00 0.02 0.01 60 1010.7
20260507100040 67 82 0.0 5.2 0.00 0.02 0.01 60 1010.7
20260507094552 66 117 0.9 5.2 0.00 0.02 0.01 60 1010.7
20260507093037 66 140 3.5 6.1 0.00 0.02 0.01 64 1010.8
20260507091535 66 102 1.7 6.1 0.00 0.02 0.01 65 1010.9
20260507090031 65 81 2.6 6.1 0.00 0.02 0.01 64 1011.1
20260507084529 64 60 0.0 3.5 0.00 0.02 0.01 65 1011.2
20260507083027 64 44 0.9 3.5 0.00 0.02 0.01 65 1011.3
20260507081525 63 88 0.9 3.5 0.00 0.02 0.01 66 1011.4
20260507080021 63 88 0.9 5.2 0.00 0.02 0.01 70 1011.4
20260507074519 61 134 1.7 4.3 0.00 0.02 0.01 70 1011.5
20260507073016 61 104 1.7 3.5 0.00 0.02 0.01 72 1011.3
20260507071518 61 63 0.9 2.6 0.00 0.02 0.01 70 1011.4
20260507070018 60 56 0.0 2.6 0.00 0.02 0.01 75 1011.5
20260507064512 59 91 0.0 2.6 0.00 0.02 0.01 77 1011.4
20260507063004 58 96 0.0 1.7 0.00 0.02 0.01 80 1011.3
20260507061502 56 98 0.9 3.5 0.00 0.02 0.01 83 1011.4
20260507060101 57 52 1.7 2.6 0.00 0.02 0.01 83 1011.2
20260507054556 55 355 0.0 0.0 0.00 0.02 0.01 85 1011.2
20260507053118 54 355 0.0 0.9 0.00 0.02 0.01 86 1011.4
20260507051554 53 355 0.0 0.0 0.00 0.02 0.01 86 1011.2
20260507050050 53 355 0.0 0.0 0.00 0.02 0.01 86 1011.2
20260507044558 53 355 0.0 0.0 0.00 0.02 0.01 86 1011.1
20260507043048 53 355 0.0 1.7 0.00 0.02 0.01 85 1010.9
20260507041546 53 355 0.0 2.6 0.00 0.02 0.01 84 1010.8
20260507040044 54 123 0.0 1.7 0.00 0.02 0.01 82 1010.7
20260507034543 54 132 0.9 3.5 0.00 0.03 0.01 80 1010.5
20260507033048 55 229 0.0 4.3 0.00 0.03 0.01 79 1010.7
20260507031551 55 238 0.9 4.3 0.00 0.03 0.01 79 1010.8
20260507030042 55 251 0.9 3.5 0.00 0.03 0.01 78 1010.7
20260507024541 55 198 0.9 4.3 0.00 0.08 0.01 78 1010.7
20260507023034 55 285 1.7 6.1 0.00 0.08 0.01 77 1010.7
20260507021536 56 250 0.9 7.8 0.00 0.08 0.01 75 1010.5
20260507020032 56 265 1.7 7.0 0.00 0.08 0.01 75 1010.4
20260507014541 56 268 0.9 6.1 0.00 0.08 0.01 74 1010.3
20260507013037 56 288 0.9 4.3 0.00 0.08 0.01 75 1010.2
20260507011536 55 229 0.0 1.7 0.00 0.08 0.01 77 1010.2
20260507010038 55 242 0.0 1.7 0.00 0.08 0.01 80 1010.2